Location: Davayat
(45.9471°N, 3.1105°E)
Time: 15:47:33
(UTC+00:00)

X-37B - Pass Details

Date: 01 December 2020
Orbit: 384 x 390 km, 45.0° (Epoch: 02 January)

Event Time Altitude Azimuth Distance (km) Brightness Sun altitude
Rises 17:22:26 0° 247° (WSW) 2,258 6.5 -13.2°
Reaches altitude 10° 17:24:31 10° 242° (WSW) 1,407 4.8 -13.5°
Maximum altitude 17:27:36 52° 165° (SSE) 487 1.0 -14.0°
Enters shadow 17:29:00 28° 101° (E) 770 1.6 -14.3°
